Time,TemperatureF,DewpointF,PressureIn,WindDirection,WindDirectionDegrees,WindSpeedMPH,WindSpeedGustMPH,Humidity,HourlyPrecipIn,Conditions,Clouds,dailyrainin,SoftwareType,DateUTC
2013-05-25 00:01:00,61.9,53.9,30.09,NNE,22,13.0,16.0,75,0.00,,,0.00,Wunderground v.1.15,2013-05-25 04:01:00,
2013-05-25 00:02:00,61.8,53.8,30.09,NNE,19,13.0,16.0,75,0.00,,,0.00,Wunderground v.1.15,2013-05-25 04:02:00,
2013-05-25 00:03:00,61.8,53.8,30.09,NNE,18,16.0,16.0,75,0.00,,,0.00,Wunderground v.1.15,2013-05-25 04:03:00,
2013-05-25 00:07:00,61.8,53.1,30.09,North,10,15.0,19.0,73,0.00,,,0.00,Wunderground v.1.15,2013-05-25 04:07:00,
2013-05-25 00:08:00,61.7,53.0,30.09,North,5,18.0,19.0,73,0.00,,,0.00,Wunderground v.1.15,2013-05-25 04:08:00,
2013-05-25 00:13:00,61.4,50.7,30.09,NNE,31,16.0,17.0,68,0.00,,,0.00,Wunderground v.1.15,2013-05-25 04:13:00,
2013-05-25 00:18:00,61.6,50.1,30.09,North,5,17.0,24.0,66,0.00,,,0.00,Wunderground v.1.15,2013-05-25 04:18:00,
2013-05-25 00:23:00,61.4,49.9,30.09,North,360,20.0,21.0,66,0.00,,,0.00,Wunderground v.1.15,2013-05-25 04:23:00,
2013-05-25 00:29:00,61.3,50.2,30.09,NNE,14,13.0,21.0,67,0.00,,,0.00,Wunderground v.1.15,2013-05-25 04:29:00,
2013-05-25 00:34:00,61.3,51.0,30.09,North,11,13.0,18.0,69,0.00,,,0.00,Wunderground v.1.15,2013-05-25 04:34:00,
2013-05-25 00:40:00,61.2,50.2,30.09,North,5,21.0,21.0,67,0.00,,,0.00,Wunderground v.1.15,2013-05-25 04:40:00,
2013-05-25 00:46:00,61.3,51.0,30.09,NNE,18,18.0,21.0,69,0.00,,,0.00,Wunderground v.1.15,2013-05-25 04:46:00,
2013-05-25 00:51:00,61.5,52.0,30.09,North,5,18.0,18.0,71,0.00,,,0.00,Wunderground v.1.15,2013-05-25 04:51:00,
2013-05-25 00:57:00,61.3,49.8,30.09,North,360,18.0,21.0,66,0.00,,,0.00,Wunderground v.1.15,2013-05-25 04:57:00,
2013-05-25 01:02:00,61.2,50.2,30.09,NNE,17,16.0,21.0,67,0.00,,,0.00,Wunderground v.1.15,2013-05-25 05:02:00,
2013-05-25 01:08:00,61.2,48.1,30.08,North,355,19.0,24.0,62,0.00,,,0.00,Wunderground v.1.15,2013-05-25 05:08:00,
2013-05-25 01:13:00,61.3,49.4,30.09,NNW,346,22.0,22.0,65,0.00,,,0.00,Wunderground v.1.15,2013-05-25 05:13:00,
2013-05-25 01:18:00,61.3,50.6,30.09,North,5,15.0,22.0,68,0.00,,,0.00,Wunderground v.1.15,2013-05-25 05:18:00,
2013-05-25 01:24:00,61.2,49.7,30.08,North,5,22.0,22.0,66,0.00,,,0.00,Wunderground v.1.15,2013-05-25 05:24:00,
2013-05-25 01:29:00,61.0,50.0,30.08,North,355,19.0,22.0,67,0.00,,,0.00,Wunderground v.1.15,2013-05-25 05:29:00,
2013-05-25 01:35:00,61.0,50.8,30.09,North,5,20.0,20.0,69,0.00,,,0.00,Wunderground v.1.15,2013-05-25 05:35:00,
2013-05-25 01:40:00,60.9,49.9,30.09,NNW,345,15.0,18.0,67,0.00,,,0.00,Wunderground v.1.15,2013-05-25 05:40:00,
2013-05-25 01:45:00,60.8,50.6,30.09,North,360,17.0,22.0,69,0.00,,,0.00,Wunderground v.1.15,2013-05-25 05:45:00,
2013-05-25 01:50:00,60.7,49.7,30.09,North,5,18.0,18.0,67,0.00,,,0.00,Wunderground v.1.15,2013-05-25 05:50:00,
2013-05-25 01:55:00,60.5,48.3,30.09,North,355,16.0,20.0,64,0.00,,,0.00,Wunderground v.1.15,2013-05-25 05:55:00,
2013-05-25 02:00:00,60.3,48.9,30.09,North,5,20.0,20.0,66,0.00,,,0.00,Wunderground v.1.15,2013-05-25 06:00:00,
2013-05-25 02:05:00,60.3,49.3,30.09,North,5,15.0,20.0,67,0.00,,,0.00,Wunderground v.1.15,2013-05-25 06:05:00,
2013-05-25 02:10:00,60.3,49.7,30.09,North,5,21.0,21.0,68,0.00,,,0.00,Wunderground v.1.15,2013-05-25 06:10:00,
2013-05-25 02:15:00,60.1,48.7,30.09,North,350,22.0,23.0,66,0.00,,,0.00,Wunderground v.1.15,2013-05-25 06:15:00,
2013-05-25 02:21:00,59.9,48.9,30.09,North,5,22.0,22.0,67,0.00,,,0.00,Wunderground v.1.15,2013-05-25 06:21:00,
2013-05-25 02:26:00,59.8,48.8,30.09,North,360,19.0,22.0,67,0.00,,,0.00,Wunderground v.1.15,2013-05-25 06:26:00,
2013-05-25 02:31:00,59.7,49.9,30.09,North,5,17.0,18.0,70,0.00,,,0.00,Wunderground v.1.15,2013-05-25 06:31:00,
2013-05-25 02:36:00,59.6,48.6,30.09,North,350,18.0,20.0,67,0.00,,,0.00,Wunderground v.1.15,2013-05-25 06:36:00,
2013-05-25 02:41:00,59.6,49.0,30.09,North,5,14.0,16.0,68,0.00,,,0.00,Wunderground v.1.15,2013-05-25 06:41:00,
2013-05-25 02:46:00,59.6,49.0,30.09,North,360,13.0,18.0,68,0.00,,,0.00,Wunderground v.1.15,2013-05-25 06:46:00,
2013-05-25 02:51:00,59.3,47.9,30.09,North,5,12.0,18.0,66,0.00,,,0.00,Wunderground v.1.15,2013-05-25 06:51:00,
2013-05-25 02:56:00,59.1,48.5,30.09,North,360,18.0,20.0,68,0.00,,,0.00,Wunderground v.1.15,2013-05-25 06:56:00,
2013-05-25 03:01:00,59.2,48.2,30.09,North,5,16.0,21.0,67,0.00,,,0.00,Wunderground v.1.15,2013-05-25 07:01:00,
2013-05-25 03:06:00,59.0,47.7,30.09,North,360,19.0,21.0,66,0.00,,,0.00,Wunderground v.1.15,2013-05-25 07:06:00,
2013-05-25 03:12:00,59.1,48.5,30.09,North,9,13.0,19.0,68,0.00,,,0.00,Wunderground v.1.15,2013-05-25 07:12:00,
2013-05-25 03:17:00,58.9,48.0,30.09,NNW,346,17.0,19.0,67,0.00,,,0.00,Wunderground v.1.15,2013-05-25 07:17:00,
2013-05-25 03:22:00,58.7,47.8,30.09,North,360,13.0,17.0,67,0.00,,,0.00,Wunderground v.1.15,2013-05-25 07:22:00,
2013-05-25 03:27:00,58.6,47.7,30.09,North,5,12.0,19.0,67,0.00,,,0.00,Wunderground v.1.15,2013-05-25 07:27:00,
2013-05-25 03:32:00,58.7,48.2,30.10,North,349,21.0,21.0,68,0.00,,,0.00,Wunderground v.1.15,2013-05-25 07:32:00,
2013-05-25 03:38:00,58.5,47.6,30.10,North,360,15.0,21.0,67,0.00,,,0.00,Wunderground v.1.15,2013-05-25 07:38:00,
2013-05-25 03:42:00,58.4,47.5,30.10,North,10,13.0,22.0,67,0.00,,,0.00,Wunderground v.1.15,2013-05-25 07:42:00,
2013-05-25 03:47:00,58.4,48.3,30.09,North,360,18.0,23.0,69,0.00,,,0.00,Wunderground v.1.15,2013-05-25 07:47:00,
2013-05-25 03:52:00,58.2,46.5,30.10,North,355,20.0,23.0,65,0.00,,,0.00,Wunderground v.1.15,2013-05-25 07:52:00,
2013-05-25 03:58:00,58.2,47.7,30.10,North,10,16.0,23.0,68,0.00,,,0.00,Wunderground v.1.15,2013-05-25 07:58:00,
2013-05-25 04:03:00,58.1,46.8,30.10,North,360,23.0,25.0,66,0.00,,,0.00,Wunderground v.1.15,2013-05-25 08:03:00,
2013-05-25 04:08:00,58.0,46.3,30.10,NNW,346,16.0,25.0,65,0.00,,,0.00,Wunderground v.1.15,2013-05-25 08:08:00,
2013-05-25 04:13:00,58.1,48.0,30.11,North,5,21.0,21.0,69,0.00,,,0.00,Wunderground v.1.15,2013-05-25 08:13:00,
2013-05-25 04:18:00,57.9,46.2,30.10,NNE,12,19.0,23.0,65,0.00,,,0.00,Wunderground v.1.15,2013-05-25 08:18:00,
2013-05-25 04:23:00,57.6,45.5,30.11,North,5,18.0,23.0,64,0.00,,,0.00,Wunderground v.1.15,2013-05-25 08:23:00,
2013-05-25 04:29:00,57.5,46.6,30.11,North,360,21.0,24.0,67,0.00,,,0.00,Wunderground v.1.15,2013-05-25 08:29:00,
2013-05-25 04:34:00,57.2,45.9,30.11,NNE,26,15.0,25.0,66,0.00,,,0.00,Wunderground v.1.15,2013-05-25 08:34:00,
2013-05-25 04:39:00,57.3,46.4,30.11,NNE,13,21.0,25.0,67,0.00,,,0.00,Wunderground v.1.15,2013-05-25 08:39:00,
2013-05-25 04:44:00,57.5,47.0,30.11,North,9,19.0,25.0,68,0.00,,,0.00,Wunderground v.1.15,2013-05-25 08:44:00,
2013-05-25 04:49:00,57.3,46.4,30.11,North,360,19.0,26.0,67,0.00,,,0.00,Wunderground v.1.15,2013-05-25 08:49:00,
2013-05-25 04:54:00,57.2,45.5,30.11,North,5,17.0,28.0,65,0.00,,,0.00,Wunderground v.1.15,2013-05-25 08:54:00,
2013-05-25 04:59:00,57.1,45.4,30.12,North,355,23.0,28.0,65,0.00,,,0.00,Wunderground v.1.15,2013-05-25 08:59:00,
2013-05-25 05:04:00,57.2,46.7,30.12,North,355,15.0,26.0,68,0.00,,,0.00,Wunderground v.1.15,2013-05-25 09:04:00,
2013-05-25 05:09:00,56.9,46.4,30.12,North,5,19.0,26.0,68,0.00,,,0.00,Wunderground v.1.15,2013-05-25 09:09:00,
2013-05-25 05:14:00,56.9,47.2,30.13,North,355,26.0,27.0,70,0.00,,,0.00,Wunderground v.1.15,2013-05-25 09:14:00,
2013-05-25 05:19:00,56.7,47.4,30.13,North,5,23.0,27.0,71,0.00,,,0.00,Wunderground v.1.15,2013-05-25 09:19:00,
2013-05-25 05:24:00,56.3,45.5,30.13,North,355,23.0,25.0,67,0.00,,,0.00,Wunderground v.1.15,2013-05-25 09:24:00,
2013-05-25 05:30:00,56.2,45.8,30.14,North,360,18.0,29.0,68,0.00,,,0.00,Wunderground v.1.15,2013-05-25 09:30:00,
2013-05-25 05:35:00,56.0,45.6,30.14,North,360,18.0,25.0,68,0.00,,,0.00,Wunderground v.1.15,2013-05-25 09:35:00,
2013-05-25 05:40:00,56.1,45.3,30.14,North,351,21.0,21.0,67,0.00,,,0.00,Wunderground v.1.15,2013-05-25 09:40:00,
2013-05-25 05:45:00,55.9,45.5,30.14,North,360,16.0,25.0,68,0.00,,,0.00,Wunderground v.1.15,2013-05-25 09:45:00,
2013-05-25 05:50:00,55.8,46.2,30.14,North,355,18.0,19.0,70,0.00,,,0.00,Wunderground v.1.15,2013-05-25 09:50:00,
2013-05-25 05:55:00,55.7,45.3,30.14,North,350,21.0,24.0,68,0.00,,,0.00,Wunderground v.1.15,2013-05-25 09:55:00,
2013-05-25 06:00:00,55.7,45.3,30.15,North,360,19.0,24.0,68,0.00,,,0.00,Wunderground v.1.15,2013-05-25 10:00:00,
2013-05-25 06:05:00,55.4,45.4,30.15,North,5,21.0,25.0,69,0.00,,,0.00,Wunderground v.1.15,2013-05-25 10:05:00,
2013-05-25 06:10:00,55.6,45.6,30.15,NNW,348,23.0,26.0,69,0.00,,,0.00,Wunderground v.1.15,2013-05-25 10:10:00,
2013-05-25 06:15:00,55.6,45.2,30.15,North,360,21.0,26.0,68,0.00,,,0.00,Wunderground v.1.15,2013-05-25 10:15:00,
2013-05-25 06:20:00,55.5,45.5,30.16,North,360,15.0,20.0,69,0.00,,,0.00,Wunderground v.1.15,2013-05-25 10:20:00,
2013-05-25 06:25:00,55.5,45.1,30.16,North,5,17.0,25.0,68,0.00,,,0.00,Wunderground v.1.15,2013-05-25 10:25:00,
2013-05-25 06:31:00,55.9,46.6,30.16,NNE,15,14.0,18.0,71,0.00,,,0.00,Wunderground v.1.15,2013-05-25 10:31:00,
2013-05-25 06:36:00,55.7,44.9,30.16,North,349,20.0,22.0,67,0.00,,,0.00,Wunderground v.1.15,2013-05-25 10:36:00,
2013-05-25 06:41:00,55.4,43.8,30.17,North,355,16.0,19.0,65,0.00,,,0.00,Wunderground v.1.15,2013-05-25 10:41:00,
2013-05-25 06:46:00,55.3,43.3,30.17,North,360,16.0,24.0,64,0.00,,,0.00,Wunderground v.1.15,2013-05-25 10:46:00,
2013-05-25 06:51:00,55.2,44.0,30.17,North,355,20.0,22.0,66,0.00,,,0.00,Wunderground v.1.15,2013-05-25 10:51:00,
2013-05-25 06:56:00,55.1,43.1,30.17,North,355,20.0,24.0,64,0.00,,,0.00,Wunderground v.1.15,2013-05-25 10:56:00,
2013-05-25 07:02:00,55.1,43.9,30.17,North,360,25.0,25.0,66,0.00,,,0.00,Wunderground v.1.15,2013-05-25 11:02:00,
2013-05-25 07:07:00,55.1,44.7,30.18,NNW,345,22.0,25.0,68,0.00,,,0.00,Wunderground v.1.15,2013-05-25 11:07:00,
2013-05-25 07:12:00,54.8,44.8,30.18,North,355,20.0,23.0,69,0.00,,,0.00,Wunderground v.1.15,2013-05-25 11:12:00,
2013-05-25 07:17:00,54.7,44.7,30.18,North,355,17.0,23.0,69,0.00,,,0.00,Wunderground v.1.15,2013-05-25 11:17:00,
2013-05-25 07:22:00,54.6,45.0,30.18,North,11,24.0,24.0,70,0.00,,,0.00,Wunderground v.1.15,2013-05-25 11:22:00,
2013-05-25 07:27:00,54.2,43.9,30.17,North,350,18.0,25.0,68,0.00,,,0.00,Wunderground v.1.15,2013-05-25 11:27:00,
2013-05-25 07:33:00,54.3,44.3,30.17,North,351,18.0,22.0,69,0.00,,,0.00,Wunderground v.1.15,2013-05-25 11:33:00,
2013-05-25 07:38:00,54.4,44.1,30.17,NNW,345,21.0,23.0,68,0.00,,,0.00,Wunderground v.1.15,2013-05-25 11:38:00,
2013-05-25 07:43:00,54.5,43.0,30.18,North,355,18.0,22.0,65,0.00,,,0.00,Wunderground v.1.15,2013-05-25 11:43:00,
2013-05-25 07:48:00,54.7,44.7,30.17,North,350,18.0,22.0,69,0.00,,,0.00,Wunderground v.1.15,2013-05-25 11:48:00,
2013-05-25 07:53:00,54.5,44.5,30.17,North,5,14.0,21.0,69,0.00,,,0.00,Wunderground v.1.15,2013-05-25 11:53:00,
2013-05-25 07:58:00,54.6,44.6,30.17,North,5,19.0,23.0,69,0.00,,,0.00,Wunderground v.1.15,2013-05-25 11:58:00,
2013-05-25 08:03:00,54.6,44.2,30.17,North,5,16.0,21.0,68,0.00,,,0.00,Wunderground v.1.15,2013-05-25 12:03:00,
2013-05-25 08:08:00,54.7,44.7,30.17,NNW,346,15.0,21.0,69,0.00,,,0.00,Wunderground v.1.15,2013-05-25 12:08:00,
2013-05-25 08:13:00,54.8,44.4,30.17,NNW,346,14.0,20.0,68,0.00,,,0.00,Wunderground v.1.15,2013-05-25 12:13:00,
2013-05-25 08:18:00,54.7,43.6,30.17,North,5,16.0,22.0,66,0.00,,,0.00,Wunderground v.1.15,2013-05-25 12:18:00,
2013-05-25 08:23:00,55.0,45.4,30.16,North,360,14.0,21.0,70,0.00,,,0.00,Wunderground v.1.15,2013-05-25 12:23:00,
2013-05-25 08:29:00,54.9,43.7,30.17,NNW,344,18.0,21.0,66,0.00,,,0.00,Wunderground v.1.15,2013-05-25 12:29:00,
2013-05-25 08:34:00,54.8,43.7,30.17,North,349,18.0,25.0,66,0.00,,,0.00,Wunderground v.1.15,2013-05-25 12:34:00,
2013-05-25 08:39:00,54.8,43.7,30.17,North,9,21.0,25.0,66,0.00,,,0.00,Wunderground v.1.15,2013-05-25 12:39:00,
2013-05-25 08:44:00,54.3,41.6,30.18,North,350,16.0,21.0,62,0.00,,,0.00,Wunderground v.1.15,2013-05-25 12:44:00,
2013-05-25 08:49:00,54.5,43.0,30.18,NNW,346,19.0,21.0,65,0.00,,,0.00,Wunderground v.1.15,2013-05-25 12:49:00,
2013-05-25 08:54:00,54.5,43.0,30.18,North,9,15.0,25.0,65,0.00,,,0.00,Wunderground v.1.15,2013-05-25 12:54:00,
2013-05-25 08:59:00,54.4,43.7,30.18,NNW,347,13.0,25.0,67,0.00,,,0.00,Wunderground v.1.15,2013-05-25 12:59:00,
2013-05-25 09:04:00,54.6,43.5,30.18,NNW,346,16.0,21.0,66,0.00,,,0.00,Wunderground v.1.15,2013-05-25 13:04:00,
2013-05-25 09:10:00,55.0,44.2,30.18,NNW,345,14.0,21.0,67,0.00,,,0.00,Wunderground v.1.15,2013-05-25 13:10:00,
2013-05-25 09:15:00,55.1,44.7,30.17,NNW,348,14.0,20.0,68,0.00,,,0.00,Wunderground v.1.15,2013-05-25 13:15:00,
2013-05-25 09:20:00,54.8,43.3,30.18,North,350,20.0,20.0,65,0.00,,,0.00,Wunderground v.1.15,2013-05-25 13:20:00,
2013-05-25 09:25:00,55.2,44.4,30.18,NNW,346,18.0,21.0,67,0.00,,,0.00,Wunderground v.1.15,2013-05-25 13:25:00,
2013-05-25 09:30:00,55.3,43.7,30.18,NNW,348,16.0,16.0,65,0.00,,,0.00,Wunderground v.1.15,2013-05-25 13:30:00,
2013-05-25 09:35:00,55.0,43.0,30.18,NNW,342,19.0,19.0,64,0.00,,,0.00,Wunderground v.1.15,2013-05-25 13:35:00,
2013-05-25 09:40:00,55.2,43.2,30.18,NNW,340,18.0,18.0,64,0.00,,,0.00,Wunderground v.1.15,2013-05-25 13:40:00,
2013-05-25 09:45:00,55.0,42.2,30.17,North,360,18.0,20.0,62,0.00,,,0.00,Wunderground v.1.15,2013-05-25 13:45:00,
2013-05-25 09:50:00,55.1,43.9,30.17,NNW,333,15.0,16.0,66,0.00,,,0.00,Wunderground v.1.15,2013-05-25 13:50:00,
2013-05-25 09:55:00,55.3,42.9,30.18,NNW,333,11.0,21.0,63,0.00,,,0.00,Wunderground v.1.15,2013-05-25 13:55:00,
2013-05-25 10:01:00,55.3,42.1,30.18,NNW,340,16.0,19.0,61,0.00,,,0.00,Wunderground v.1.15,2013-05-25 14:01:00,
2013-05-25 10:06:00,55.5,44.3,30.18,North,355,15.0,19.0,66,0.00,,,0.00,Wunderground v.1.15,2013-05-25 14:06:00,
2013-05-25 10:11:00,55.4,43.4,30.18,NNW,339,15.0,25.0,64,0.00,,,0.00,Wunderground v.1.15,2013-05-25 14:11:00,
2013-05-25 10:16:00,55.5,44.3,30.18,NNW,327,14.0,25.0,66,0.00,,,0.00,Wunderground v.1.15,2013-05-25 14:16:00,
2013-05-25 10:21:00,55.7,44.1,30.18,NNW,342,10.0,15.0,65,0.00,,,0.00,Wunderground v.1.15,2013-05-25 14:21:00,
2013-05-25 10:26:00,55.4,43.0,30.17,NNW,342,12.0,16.0,63,0.00,,,0.00,Wunderground v.1.15,2013-05-25 14:26:00,
2013-05-25 10:31:00,55.6,43.6,30.17,NNW,343,14.0,17.0,64,0.00,,,0.00,Wunderground v.1.15,2013-05-25 14:31:00,
2013-05-25 10:37:00,55.9,42.6,30.17,NNW,346,9.0,17.0,61,0.00,,,0.00,Wunderground v.1.15,2013-05-25 14:37:00,
2013-05-25 10:42:00,55.9,42.2,30.17,North,355,10.0,13.0,60,0.00,,,0.00,Wunderground v.1.15,2013-05-25 14:42:00,
2013-05-25 10:47:00,56.1,43.7,30.17,NNW,333,14.0,14.0,63,0.00,,,0.00,Wunderground v.1.15,2013-05-25 14:47:00,
2013-05-25 10:52:00,56.1,42.0,30.17,NNW,337,13.0,13.0,59,0.00,,,0.00,Wunderground v.1.15,2013-05-25 14:52:00,
2013-05-25 11:01:00,56.4,43.5,30.17,NNW,329,8.0,14.0,62,0.00,,,0.00,Wunderground v.1.15,2013-05-25 15:01:00,
2013-05-25 11:06:00,56.6,43.3,30.18,NW,312,7.0,15.0,61,0.00,,,0.00,Wunderground v.1.15,2013-05-25 15:06:00,
2013-05-25 11:11:00,56.5,43.2,30.18,NNW,331,10.0,11.0,61,0.00,,,0.00,Wunderground v.1.15,2013-05-25 15:11:00,
2013-05-25 11:16:00,56.7,43.8,30.18,NW,305,6.0,13.0,62,0.00,,,0.00,Wunderground v.1.15,2013-05-25 15:16:00,
2013-05-25 11:21:00,56.9,43.6,30.18,WNW,293,10.0,10.0,61,0.00,,,0.00,Wunderground v.1.15,2013-05-25 15:21:00,
2013-05-25 11:26:00,57.4,43.6,30.18,WNW,284,6.0,13.0,60,0.00,,,0.00,Wunderground v.1.15,2013-05-25 15:26:00,
2013-05-25 11:31:00,57.6,43.8,30.18,NNW,328,10.0,12.0,60,0.00,,,0.00,Wunderground v.1.15,2013-05-25 15:31:00,
2013-05-25 11:36:00,57.6,44.2,30.18,West,273,13.0,15.0,61,0.00,,,0.00,Wunderground v.1.15,2013-05-25 15:36:00,
2013-05-25 11:41:00,58.0,44.2,30.18,NW,309,13.0,17.0,60,0.00,,,0.00,Wunderground v.1.15,2013-05-25 15:41:00,
2013-05-25 11:46:00,58.0,44.2,30.18,NW,325,11.0,18.0,60,0.00,,,0.00,Wunderground v.1.15,2013-05-25 15:46:00,
2013-05-25 11:51:00,58.1,43.4,30.18,NW,305,10.0,13.0,58,0.00,,,0.00,Wunderground v.1.15,2013-05-25 15:51:00,
2013-05-25 11:57:00,58.1,44.3,30.18,WNW,296,6.0,16.0,60,0.00,,,0.00,Wunderground v.1.15,2013-05-25 15:57:00,
2013-05-25 12:02:00,58.3,44.9,30.18,WNW,289,12.0,17.0,61,0.00,,,0.00,Wunderground v.1.15,2013-05-25 16:02:00,
2013-05-25 12:07:00,58.4,45.0,30.18,WNW,300,12.0,17.0,61,0.00,,,0.00,Wunderground v.1.15,2013-05-25 16:07:00,
2013-05-25 12:12:00,58.5,44.7,30.18,WNW,294,13.0,15.0,60,0.00,,,0.00,Wunderground v.1.15,2013-05-25 16:12:00,
2013-05-25 12:17:00,58.7,45.3,30.18,NW,311,11.0,17.0,61,0.00,,,0.00,Wunderground v.1.15,2013-05-25 16:17:00,
2013-05-25 12:22:00,58.7,45.3,30.19,NW,317,16.0,16.0,61,0.00,,,0.00,Wunderground v.1.15,2013-05-25 16:22:00,
2013-05-25 12:27:00,58.9,44.1,30.18,WNW,296,10.0,18.0,58,0.00,,,0.00,Wunderground v.1.15,2013-05-25 16:27:00,
2013-05-25 12:32:00,59.0,45.1,30.19,NW,313,12.0,16.0,60,0.00,,,0.00,Wunderground v.1.15,2013-05-25 16:32:00,
2013-05-25 12:37:00,59.1,45.7,30.18,NW,321,18.0,21.0,61,0.00,,,0.00,Wunderground v.1.15,2013-05-25 16:37:00,
2013-05-25 12:42:00,59.4,44.6,30.18,NW,304,10.0,15.0,58,0.00,,,0.00,Wunderground v.1.15,2013-05-25 16:42:00,
2013-05-25 12:47:00,59.5,45.6,30.18,NW,320,14.0,20.0,60,0.00,,,0.00,Wunderground v.1.15,2013-05-25 16:47:00,
2013-05-25 12:52:00,59.5,44.2,30.18,WNW,294,17.0,17.0,57,0.00,,,0.00,Wunderground v.1.15,2013-05-25 16:52:00,
2013-05-25 12:58:00,59.7,44.9,30.18,WNW,291,14.0,17.0,58,0.00,,,0.00,Wunderground v.1.15,2013-05-25 16:58:00,
2013-05-25 13:03:00,59.9,44.6,30.17,WNW,300,16.0,17.0,57,0.00,,,0.00,Wunderground v.1.15,2013-05-25 17:03:00,
2013-05-25 13:08:00,60.0,44.7,30.17,NW,315,14.0,17.0,57,0.00,,,0.00,Wunderground v.1.15,2013-05-25 17:08:00,
2013-05-25 13:13:00,60.3,44.5,30.17,WNW,291,14.0,16.0,56,0.00,,,0.00,Wunderground v.1.15,2013-05-25 17:13:00,
2013-05-25 13:18:00,60.6,44.8,30.17,NW,312,11.0,17.0,56,0.00,,,0.00,Wunderground v.1.15,2013-05-25 17:18:00,
2013-05-25 13:23:00,60.9,46.0,30.17,NW,312,12.0,15.0,58,0.00,,,0.00,Wunderground v.1.15,2013-05-25 17:23:00,
2013-05-25 13:28:00,61.0,45.2,30.16,WNW,291,6.0,15.0,56,0.00,,,0.00,Wunderground v.1.15,2013-05-25 17:28:00,
2013-05-25 13:33:00,61.4,46.9,30.16,NW,311,11.0,14.0,59,0.00,,,0.00,Wunderground v.1.15,2013-05-25 17:33:00,
2013-05-25 13:38:00,61.5,45.2,30.15,NW,319,11.0,17.0,55,0.00,,,0.00,Wunderground v.1.15,2013-05-25 17:38:00,
2013-05-25 13:43:00,61.5,45.7,30.15,NW,319,11.0,16.0,56,0.00,,,0.00,Wunderground v.1.15,2013-05-25 17:43:00,
2013-05-25 13:49:00,61.6,45.3,30.15,NW,319,11.0,16.0,55,0.00,,,0.00,Wunderground v.1.15,2013-05-25 17:49:00,
2013-05-25 13:54:00,61.8,45.5,30.15,WNW,295,16.0,16.0,55,0.00,,,0.00,Wunderground v.1.15,2013-05-25 17:54:00,
2013-05-25 13:59:00,62.1,45.7,30.15,WNW,288,13.0,16.0,55,0.00,,,0.00,Wunderground v.1.15,2013-05-25 17:59:00,
2013-05-25 14:04:00,62.2,45.3,30.14,NW,317,7.0,16.0,54,0.00,,,0.00,Wunderground v.1.15,2013-05-25 18:04:00,
2013-05-25 14:09:00,62.5,46.1,30.14,NW,317,10.0,16.0,55,0.00,,,0.00,Wunderground v.1.15,2013-05-25 18:09:00,
2013-05-25 14:14:00,62.6,46.2,30.14,NW,306,11.0,15.0,55,0.00,,,0.00,Wunderground v.1.15,2013-05-25 18:14:00,
2013-05-25 14:19:00,62.8,46.4,30.13,WNW,299,13.0,15.0,55,0.00,,,0.00,Wunderground v.1.15,2013-05-25 18:19:00,
2013-05-25 14:24:00,63.0,46.6,30.13,NW,314,10.0,14.0,55,0.00,,,0.00,Wunderground v.1.15,2013-05-25 18:24:00,
2013-05-25 14:29:00,62.9,46.5,30.13,NW,321,9.0,18.0,55,0.00,,,0.00,Wunderground v.1.15,2013-05-25 18:29:00,
2013-05-25 14:34:00,63.1,47.1,30.13,NW,310,13.0,15.0,56,0.00,,,0.00,Wunderground v.1.15,2013-05-25 18:34:00,
2013-05-25 14:40:00,63.3,46.9,30.13,NW,308,18.0,18.0,55,0.00,,,0.00,Wunderground v.1.15,2013-05-25 18:40:00,
2013-05-25 14:45:00,63.5,47.5,30.13,NW,305,13.0,18.0,56,0.00,,,0.00,Wunderground v.1.15,2013-05-25 18:45:00,
2013-05-25 14:50:00,63.5,46.6,30.13,WNW,303,12.0,12.0,54,0.00,,,0.00,Wunderground v.1.15,2013-05-25 18:50:00,
2013-05-25 14:55:00,63.7,47.7,30.13,NW,315,12.0,16.0,56,0.00,,,0.00,Wunderground v.1.15,2013-05-25 18:55:00,
2013-05-25 15:00:00,63.8,47.3,30.14,NW,321,13.0,13.0,55,0.00,,,0.00,Wunderground v.1.15,2013-05-25 19:00:00,
2013-05-25 15:05:00,64.0,48.5,30.13,NW,313,10.0,17.0,57,0.00,,,0.00,Wunderground v.1.15,2013-05-25 19:05:00,
2013-05-25 15:11:00,64.1,49.0,30.13,NW,305,9.0,11.0,58,0.00,,,0.00,Wunderground v.1.15,2013-05-25 19:11:00,
2013-05-25 15:16:00,64.5,48.0,30.13,WNW,283,11.0,17.0,55,0.00,,,0.00,Wunderground v.1.15,2013-05-25 19:16:00,
2013-05-25 15:21:00,64.8,48.7,30.12,NW,311,10.0,13.0,56,0.00,,,0.00,Wunderground v.1.15,2013-05-25 19:21:00,
2013-05-25 15:26:00,64.7,47.7,30.13,NW,317,6.0,17.0,54,0.00,,,0.00,Wunderground v.1.15,2013-05-25 19:26:00,
2013-05-25 15:31:00,64.7,46.7,30.12,WNW,302,8.0,11.0,52,0.00,,,0.00,Wunderground v.1.15,2013-05-25 19:31:00,
2013-05-25 15:36:00,65.2,48.6,30.12,NW,307,11.0,14.0,55,0.00,,,0.00,Wunderground v.1.15,2013-05-25 19:36:00,
2013-05-25 15:41:00,65.3,48.7,30.12,NW,309,9.0,14.0,55,0.00,,,0.00,Wunderground v.1.15,2013-05-25 19:41:00,
2013-05-25 15:46:00,65.4,50.2,30.11,NW,323,10.0,14.0,58,0.00,,,0.00,Wunderground v.1.15,2013-05-25 19:46:00,
2013-05-25 15:51:00,65.4,48.3,30.11,NW,316,14.0,15.0,54,0.00,,,0.00,Wunderground v.1.15,2013-05-25 19:51:00,
2013-05-25 15:56:00,65.4,45.7,30.11,WNW,303,6.0,16.0,49,0.00,,,0.00,Wunderground v.1.15,2013-05-25 19:56:00,
2013-05-25 16:01:00,65.7,47.1,30.11,NW,307,13.0,18.0,51,0.00,,,0.00,Wunderground v.1.15,2013-05-25 20:01:00,
2013-05-25 16:06:00,65.9,48.3,30.11,WNW,302,11.0,18.0,53,0.00,,,0.00,Wunderground v.1.15,2013-05-25 20:06:00,
2013-05-25 16:12:00,65.8,47.7,30.11,NW,304,8.0,17.0,52,0.00,,,0.00,Wunderground v.1.15,2013-05-25 20:12:00,
2013-05-25 16:17:00,65.9,49.3,30.11,NW,315,9.0,18.0,55,0.00,,,0.00,Wunderground v.1.15,2013-05-25 20:17:00,
2013-05-25 16:22:00,66.2,48.6,30.10,WNW,302,12.0,14.0,53,0.00,,,0.00,Wunderground v.1.15,2013-05-25 20:22:00,
2013-05-25 16:27:00,66.4,47.2,30.10,NW,315,13.0,18.0,50,0.00,,,0.00,Wunderground v.1.15,2013-05-25 20:27:00,
2013-05-25 16:32:00,66.3,47.6,30.10,NW,312,16.0,17.0,51,0.00,,,0.00,Wunderground v.1.15,2013-05-25 20:32:00,
2013-05-25 16:37:00,66.2,48.6,30.10,NW,321,14.0,17.0,53,0.00,,,0.00,Wunderground v.1.15,2013-05-25 20:37:00,
2013-05-25 16:42:00,66.4,45.5,30.10,NW,307,13.0,17.0,47,0.00,,,0.00,Wunderground v.1.15,2013-05-25 20:42:00,
2013-05-25 16:47:00,66.6,48.4,30.10,WNW,302,16.0,18.0,52,0.00,,,0.00,Wunderground v.1.15,2013-05-25 20:47:00,
2013-05-25 16:52:00,66.7,46.9,30.10,WNW,291,15.0,15.0,49,0.00,,,0.00,Wunderground v.1.15,2013-05-25 20:52:00,
2013-05-25 16:58:00,66.5,47.8,30.10,NW,309,16.0,18.0,51,0.00,,,0.00,Wunderground v.1.15,2013-05-25 20:58:00,
2013-05-25 17:03:00,66.5,47.8,30.10,NW,321,13.0,20.0,51,0.00,,,0.00,Wunderground v.1.15,2013-05-25 21:03:00,
2013-05-25 17:08:00,66.5,46.2,30.11,NW,312,12.0,20.0,48,0.00,,,0.00,Wunderground v.1.15,2013-05-25 21:08:00,
2013-05-25 17:13:00,67.1,47.3,30.10,NW,321,14.0,21.0,49,0.00,,,0.00,Wunderground v.1.15,2013-05-25 21:13:00,
2013-05-25 17:18:00,66.9,48.2,30.11,WNW,302,10.0,21.0,51,0.00,,,0.00,Wunderground v.1.15,2013-05-25 21:18:00,
2013-05-25 17:24:00,66.7,48.5,30.10,WNW,286,11.0,15.0,52,0.00,,,0.00,Wunderground v.1.15,2013-05-25 21:24:00,
2013-05-25 17:29:00,66.8,49.1,30.11,NW,316,6.0,16.0,53,0.00,,,0.00,Wunderground v.1.15,2013-05-25 21:29:00,
2013-05-25 17:34:00,67.0,49.3,30.11,WNW,300,15.0,17.0,53,0.00,,,0.00,Wunderground v.1.15,2013-05-25 21:34:00,
2013-05-25 17:39:00,67.4,50.7,30.10,WNW,302,9.0,17.0,55,0.00,,,0.00,Wunderground v.1.15,2013-05-25 21:39:00,
2013-05-25 17:44:00,67.6,48.8,30.10,NW,309,12.0,13.0,51,0.00,,,0.00,Wunderground v.1.15,2013-05-25 21:44:00,
2013-05-25 17:49:00,67.4,49.2,30.10,NNW,333,15.0,18.0,52,0.00,,,0.00,Wunderground v.1.15,2013-05-25 21:49:00,
2013-05-25 17:54:00,67.7,47.8,30.11,NW,317,10.0,17.0,49,0.00,,,0.00,Wunderground v.1.15,2013-05-25 21:54:00,
2013-05-25 17:59:00,67.9,49.6,30.11,NNW,334,17.0,20.0,52,0.00,,,0.00,Wunderground v.1.15,2013-05-25 21:59:00,
2013-05-25 18:04:00,67.8,46.3,30.11,NNW,332,14.0,19.0,46,0.00,,,0.00,Wunderground v.1.15,2013-05-25 22:04:00,
2013-05-25 18:10:00,67.9,46.9,30.11,North,350,19.0,21.0,47,0.00,,,0.00,Wunderground v.1.15,2013-05-25 22:10:00,
2013-05-25 18:15:00,67.9,47.5,30.12,NNW,332,15.0,21.0,48,0.00,,,0.00,Wunderground v.1.15,2013-05-25 22:15:00,
2013-05-25 18:20:00,68.0,47.0,30.12,NNW,330,11.0,16.0,47,0.00,,,0.00,Wunderground v.1.15,2013-05-25 22:20:00,
2013-05-25 18:25:00,68.1,47.1,30.11,NW,326,13.0,17.0,47,0.00,,,0.00,Wunderground v.1.15,2013-05-25 22:25:00,
2013-05-25 18:30:00,68.3,45.5,30.12,NNW,336,15.0,18.0,44,0.00,,,0.00,Wunderground v.1.15,2013-05-25 22:30:00,
2013-05-25 18:35:00,68.1,47.1,30.12,North,355,15.0,18.0,47,0.00,,,0.00,Wunderground v.1.15,2013-05-25 22:35:00,
2013-05-25 18:40:00,68.0,47.6,30.11,NNW,347,12.0,16.0,48,0.00,,,0.00,Wunderground v.1.15,2013-05-25 22:40:00,
2013-05-25 18:46:00,68.1,46.5,30.11,NNW,344,17.0,20.0,46,0.00,,,0.00,Wunderground v.1.15,2013-05-25 22:46:00,
2013-05-25 18:50:00,68.1,47.7,30.12,NNW,335,11.0,15.0,48,0.00,,,0.00,Wunderground v.1.15,2013-05-25 22:50:00,
2013-05-25 18:56:00,68.0,47.6,30.12,NNW,345,13.0,15.0,48,0.00,,,0.00,Wunderground v.1.15,2013-05-25 22:56:00,
2013-05-25 19:01:00,68.0,48.1,30.12,NNW,340,13.0,15.0,49,0.00,,,0.00,Wunderground v.1.15,2013-05-25 23:01:00,
2013-05-25 19:06:00,68.1,46.5,30.12,NNW,331,11.0,18.0,46,0.00,,,0.00,Wunderground v.1.15,2013-05-25 23:06:00,
2013-05-25 19:11:00,68.1,47.1,30.12,NNW,333,15.0,17.0,47,0.00,,,0.00,Wunderground v.1.15,2013-05-25 23:11:00,
2013-05-25 19:16:00,68.1,45.9,30.12,NNW,332,11.0,17.0,45,0.00,,,0.00,Wunderground v.1.15,2013-05-25 23:16:00,
2013-05-25 19:21:00,68.1,47.1,30.12,NNW,343,11.0,12.0,47,0.00,,,0.00,Wunderground v.1.15,2013-05-25 23:21:00,
2013-05-25 19:26:00,68.1,47.1,30.12,NW,323,9.0,12.0,47,0.00,,,0.00,Wunderground v.1.15,2013-05-25 23:26:00,
2013-05-25 19:31:00,68.0,45.3,30.12,NW,323,6.0,12.0,44,0.00,,,0.00,Wunderground v.1.15,2013-05-25 23:31:00,
2013-05-25 19:37:00,68.0,47.6,30.12,NW,320,10.0,13.0,48,0.00,,,0.00,Wunderground v.1.15,2013-05-25 23:37:00,
2013-05-25 19:42:00,67.9,47.5,30.12,NW,315,10.0,10.0,48,0.00,,,0.00,Wunderground v.1.15,2013-05-25 23:42:00,
2013-05-25 19:47:00,67.9,47.5,30.13,NNW,336,14.0,15.0,48,0.00,,,0.00,Wunderground v.1.15,2013-05-25 23:47:00,
2013-05-25 19:52:00,68.0,46.4,30.13,NW,323,11.0,14.0,46,0.00,,,0.00,Wunderground v.1.15,2013-05-25 23:52:00,
2013-05-25 19:57:00,68.0,46.4,30.13,NNW,327,12.0,15.0,46,0.00,,,0.00,Wunderground v.1.15,2013-05-25 23:57:00,
2013-05-25 20:03:00,68.0,47.0,30.13,NW,321,8.0,11.0,47,0.00,,,0.00,Wunderground v.1.15,2013-05-26 00:03:00,
2013-05-25 20:08:00,67.9,46.9,30.13,NW,320,6.0,11.0,47,0.00,,,0.00,Wunderground v.1.15,2013-05-26 00:08:00,
2013-05-25 20:13:00,68.0,47.6,30.13,NNW,333,10.0,14.0,48,0.00,,,0.00,Wunderground v.1.15,2013-05-26 00:13:00,
2013-05-25 20:18:00,68.0,47.0,30.13,NNW,333,12.0,14.0,47,0.00,,,0.00,Wunderground v.1.15,2013-05-26 00:18:00,
2013-05-25 20:23:00,68.0,46.4,30.13,NNW,334,9.0,15.0,46,0.00,,,0.00,Wunderground v.1.15,2013-05-26 00:23:00,
2013-05-25 20:28:00,68.0,47.0,30.13,NNW,329,9.0,15.0,47,0.00,,,0.00,Wunderground v.1.15,2013-05-26 00:28:00,
2013-05-25 20:33:00,68.0,46.4,30.13,NNW,329,14.0,14.0,46,0.00,,,0.00,Wunderground v.1.15,2013-05-26 00:33:00,
2013-05-25 20:39:00,68.0,46.4,30.13,NW,325,5.0,14.0,46,0.00,,,0.00,Wunderground v.1.15,2013-05-26 00:39:00,
2013-05-25 20:44:00,68.0,45.9,30.14,NNW,333,15.0,15.0,45,0.00,,,0.00,Wunderground v.1.15,2013-05-26 00:44:00,
2013-05-25 20:49:00,68.1,46.5,30.13,NNW,332,7.0,15.0,46,0.00,,,0.00,Wunderground v.1.15,2013-05-26 00:49:00,
2013-05-25 20:54:00,68.0,45.9,30.14,NNW,327,7.0,13.0,45,0.00,,,0.00,Wunderground v.1.15,2013-05-26 00:54:00,
2013-05-25 20:59:00,67.9,46.3,30.14,NW,323,6.0,13.0,46,0.00,,,0.00,Wunderground v.1.15,2013-05-26 00:59:00,
2013-05-25 21:04:00,67.9,45.8,30.14,NW,321,8.0,8.0,45,0.00,,,0.00,Wunderground v.1.15,2013-05-26 01:04:00,
2013-05-25 21:09:00,67.9,47.5,30.14,NNW,333,6.0,11.0,48,0.00,,,0.00,Wunderground v.1.15,2013-05-26 01:09:00,
2013-05-25 21:14:00,67.9,47.5,30.14,NNW,327,9.0,10.0,48,0.00,,,0.00,Wunderground v.1.15,2013-05-26 01:14:00,
2013-05-25 21:19:00,67.9,47.5,30.14,NW,321,5.0,10.0,48,0.00,,,0.00,Wunderground v.1.15,2013-05-26 01:19:00,
2013-05-25 21:24:00,67.9,45.8,30.14,NNW,330,11.0,11.0,45,0.00,,,0.00,Wunderground v.1.15,2013-05-26 01:24:00,
2013-05-25 21:29:00,67.8,45.7,30.14,NNW,327,4.0,11.0,45,0.00,,,0.00,Wunderground v.1.15,2013-05-26 01:29:00,
2013-05-25 21:35:00,67.8,46.3,30.15,NNW,327,5.0,6.0,46,0.00,,,0.00,Wunderground v.1.15,2013-05-26 01:35:00,
2013-05-25 21:40:00,67.7,46.7,30.15,NNW,327,2.0,6.0,47,0.00,,,0.00,Wunderground v.1.15,2013-05-26 01:40:00,
2013-05-25 21:45:00,67.7,46.7,30.15,NNW,327,4.0,6.0,47,0.00,,,0.00,Wunderground v.1.15,2013-05-26 01:45:00,
2013-05-25 21:50:00,67.7,47.8,30.15,NNW,327,4.0,4.0,49,0.00,,,0.00,Wunderground v.1.15,2013-05-26 01:50:00,
2013-05-25 21:55:00,67.6,46.6,30.15,NNW,327,0.0,4.0,47,0.00,,,0.00,Wunderground v.1.15,2013-05-26 01:55:00,
2013-05-25 22:00:00,67.6,46.6,30.15,NNW,327,1.0,3.0,47,0.00,,,0.00,Wunderground v.1.15,2013-05-26 02:00:00,
2013-05-25 22:05:00,67.5,47.1,30.15,NNW,327,2.0,3.0,48,0.00,,,0.00,Wunderground v.1.15,2013-05-26 02:05:00,
2013-05-25 22:10:00,67.5,47.1,30.15,NNW,327,0.0,2.0,48,0.00,,,0.00,Wunderground v.1.15,2013-05-26 02:10:00,
2013-05-25 22:15:00,67.3,47.5,30.15,NNW,327,0.0,2.0,49,0.00,,,0.00,Wunderground v.1.15,2013-05-26 02:15:00,
2013-05-25 22:20:00,66.9,47.6,30.15,NNW,327,0.0,0.0,50,0.00,,,0.00,Wunderground v.1.15,2013-05-26 02:20:00,
2013-05-25 22:26:00,66.1,47.4,30.15,NNW,327,0.0,0.0,51,0.00,,,0.00,Wunderground v.1.15,2013-05-26 02:26:00,
2013-05-25 22:31:00,65.3,47.7,30.15,NNW,327,0.0,0.0,53,0.00,,,0.00,Wunderground v.1.15,2013-05-26 02:31:00,
2013-05-25 22:36:00,64.6,48.5,30.15,NNW,327,0.0,0.0,56,0.00,,,0.00,Wunderground v.1.15,2013-05-26 02:36:00,
2013-05-25 22:41:00,64.1,48.5,30.15,NNW,327,0.0,0.0,57,0.00,,,0.00,Wunderground v.1.15,2013-05-26 02:41:00,
2013-05-25 22:46:00,63.5,49.4,30.15,NNW,327,0.0,0.0,60,0.00,,,0.00,Wunderground v.1.15,2013-05-26 02:46:00,
2013-05-25 22:51:00,63.0,49.8,30.15,NNW,327,0.0,0.0,62,0.00,,,0.00,Wunderground v.1.15,2013-05-26 02:51:00,
2013-05-25 22:56:00,62.3,49.1,30.15,NNW,327,0.0,0.0,62,0.00,,,0.00,Wunderground v.1.15,2013-05-26 02:56:00,
2013-05-25 23:01:00,62.0,50.1,30.15,NNW,327,0.0,0.0,65,0.00,,,0.00,Wunderground v.1.15,2013-05-26 03:01:00,
2013-05-25 23:06:00,61.6,49.7,30.15,NNW,327,0.0,0.0,65,0.00,,,0.00,Wunderground v.1.15,2013-05-26 03:06:00,
2013-05-25 23:11:00,61.3,49.8,30.15,NNW,327,0.0,0.0,66,0.00,,,0.00,Wunderground v.1.15,2013-05-26 03:11:00,
2013-05-25 23:17:00,61.0,50.0,30.15,NNW,327,0.0,0.0,67,0.00,,,0.00,Wunderground v.1.15,2013-05-26 03:17:00,
2013-05-25 23:22:00,60.9,49.1,30.15,NNW,327,0.0,0.0,65,0.00,,,0.00,Wunderground v.1.15,2013-05-26 03:22:00,
2013-05-25 23:27:00,60.9,50.3,30.15,NNW,327,0.0,0.0,68,0.00,,,0.00,Wunderground v.1.15,2013-05-26 03:27:00,
2013-05-25 23:32:00,60.8,49.4,30.15,NNW,327,0.0,0.0,66,0.00,,,0.00,Wunderground v.1.15,2013-05-26 03:32:00,
2013-05-25 23:37:00,61.1,49.7,30.15,NNW,327,0.0,3.0,66,0.00,,,0.00,Wunderground v.1.15,2013-05-26 03:37:00,
2013-05-25 23:42:00,62.9,49.2,30.15,NW,326,2.0,4.0,61,0.00,,,0.00,Wunderground v.1.15,2013-05-26 03:42:00,
2013-05-25 23:48:00,64.3,49.7,30.15,NW,326,0.0,4.0,59,0.00,,,0.00,Wunderground v.1.15,2013-05-26 03:48:00,
2013-05-25 23:53:00,64.6,49.9,30.15,NW,326,0.0,2.0,59,0.00,,,0.00,Wunderground v.1.15,2013-05-26 03:53:00,
2013-05-25 23:58:00,64.5,50.7,30.15,NW,326,0.0,2.0,61,0.00,,,0.00,Wunderground v.1.15,2013-05-26 03:58:00,